FW4741 Weather Reports


Display with metric or nautical units.
time (UTC)temp
F
wind
direction
speed
MPH
gust
MPH
rain 1hr
in
rain 24hr
in
rain mn
in
humidity
%
barometer
mb
20260905004606 64 77 2.0 6.0 0.00 0.00 0.00 86 1021.8
20260905004103 64 77 2.0 6.0 0.00 0.00 0.00 86 1021.7
20260905003604 64 77 2.0 6.0 0.00 0.00 0.00 85 1021.6
20260905003103 64 77 2.0 6.0 0.00 0.00 0.00 85 1021.6
20260905002604 64 77 2.0 6.0 0.00 0.00 0.00 84 1021.6
20260905002103 64 77 2.0 6.0 0.00 0.00 0.00 83 1021.6
20260905001104 65 77 2.0 6.0 0.00 0.00 0.00 81 1021.5
20260905000604 65 77 2.0 6.0 0.00 0.00 0.00 78 1021.4
20260904235603 65 77 2.0 6.0 0.00 0.00 0.00 76 1021.3
20260904235104 65 77 2.0 6.0 0.00 0.00 0.00 80 1021.2
20260904234603 64 77 2.0 6.0 0.00 0.00 0.00 82 1021.3
20260904234104 65 77 2.0 6.0 0.00 0.00 0.00 82 1021.3
20260904233604 65 77 2.0 6.0 0.00 0.00 0.00 80 1021.3
20260904232604 66 77 2.0 6.0 0.00 0.00 0.00 79 1021.3
20260904232103 66 77 2.0 6.0 0.00 0.00 0.00 79 1021.3
20260904231604 67 77 2.0 6.0 0.00 0.00 0.00 81 1021.3
20260904231104 69 77 2.0 6.0 0.00 0.00 0.00 80 1021.4
20260904230104 73 77 2.0 6.0 0.00 0.00 0.00 71 1021.2
20260904225104 75 77 2.0 6.0 0.00 0.00 0.00 63 1021.4
20260904224603 76 77 2.0 6.0 0.00 0.00 0.00 64 1021.3
20260904224104 76 77 2.0 6.0 0.00 0.00 0.00 61 1021.4
20260904223104 76 77 2.0 6.0 0.00 0.00 0.00 62 1021.3
20260904222603 76 77 2.0 6.0 0.00 0.00 0.00 62 1021.3
20260904221103 76 77 2.0 6.0 0.00 0.00 0.00 60 1021.2
20260904220604 76 77 2.0 6.0 0.00 0.00 0.00 61 1021.1
20260904220104 77 77 2.0 6.0 0.00 0.00 0.00 60 1021.1
20260904214604 77 77 2.0 6.0 0.00 0.00 0.00 59 1021.2
20260904214103 77 77 2.0 6.0 0.00 0.00 0.00 59 1021.3
20260904213603 77 77 2.0 6.0 0.00 0.00 0.00 60 1021.3
20260904212104 77 77 2.0 6.0 0.00 0.00 0.00 60 1021.4
20260904211104 76 77 2.0 6.0 0.00 0.00 0.00 60 1021.6
20260904210604 76 77 2.0 6.0 0.00 0.00 0.00 59 1021.6
20260904210104 77 77 2.0 6.0 0.00 0.00 0.00 59 1021.5
20260904205604 76 77 2.0 6.0 0.00 0.00 0.00 60 1021.6
20260904205104 76 77 2.0 6.0 0.00 0.00 0.00 58 1021.6
20260904204104 76 77 2.0 6.0 0.00 0.00 0.00 58 1021.7
20260904203604 76 77 2.0 6.0 0.00 0.00 0.00 58 1021.8
20260904203104 76 77 2.0 6.0 0.00 0.00 0.00 57 1021.9
20260904202103 76 77 2.0 6.0 0.00 0.00 0.00 57 1021.9
20260904201604 76 77 2.0 6.0 0.00 0.00 0.00 58 1022.0
20260904201103 76 77 2.0 6.0 0.00 0.00 0.00 57 1022.0
20260904195603 76 77 2.0 6.0 0.00 0.00 0.00 57 1022.1
20260904195104 76 77 2.0 6.0 0.00 0.00 0.00 57 1022.2
20260904194604 76 77 2.0 6.0 0.00 0.00 0.00 55 1022.2
20260904193605 77 77 2.0 6.0 0.00 0.00 0.00 57 1022.3
20260904193104 77 77 2.0 6.0 0.00 0.00 0.00 55 1022.3
20260904192603 77 77 2.0 6.0 0.00 0.00 0.00 54 1022.3
20260904192104 77 77 2.0 6.0 0.00 0.00 0.00 55 1022.4
20260904191604 77 77 2.0 6.0 0.00 0.00 0.00 56 1022.4
20260904191103 76 77 2.0 6.0 0.00 0.00 0.00 57 1022.5
20260904190104 77 77 2.0 6.0 0.00 0.00 0.00 55 1022.5
20260904185603 77 77 2.0 6.0 0.00 0.00 0.00 54 1022.5
20260904184604 76 77 2.0 6.0 0.00 0.00 0.00 54 1022.6
20260904184103 76 77 2.0 6.0 0.00 0.00 0.00 53 1022.6
20260904183604 76 77 2.0 6.0 0.00 0.00 0.00 54 1022.6
20260904183103 76 77 2.0 6.0 0.00 0.00 0.00 54 1022.7
20260904182604 76 77 2.0 6.0 0.00 0.00 0.00 56 1022.7
20260904181604 75 77 2.0 6.0 0.00 0.00 0.00 54 1022.8
20260904181104 75 77 2.0 6.0 0.00 0.00 0.00 54 1022.8
20260904180604 74 77 2.0 6.0 0.00 0.00 0.00 55 1022.9
20260904180104 74 77 2.0 6.0 0.00 0.00 0.00 57 1023.0
20260904175604 74 77 2.0 6.0 0.00 0.00 0.00 56 1023.0
20260904175104 74 77 2.0 6.0 0.00 0.00 0.00 58 1023.0
20260904174604 74 77 2.0 6.0 0.00 0.00 0.00 58 1023.0
20260904173103 73 77 2.0 6.0 0.00 0.00 0.00 59 1023.1
20260904171604 74 77 2.0 6.0 0.00 0.00 0.00 55 1023.2
20260904171104 74 77 2.0 6.0 0.00 0.00 0.00 52 1023.2
20260904170604 74 77 2.0 6.0 0.00 0.00 0.00 52 1023.2
20260904165604 73 77 2.0 6.0 0.00 0.00 0.00 56 1023.3
20260904165103 73 77 2.0 6.0 0.00 0.00 0.00 55 1023.3
20260904164604 72 77 2.0 6.0 0.00 0.00 0.00 58 1023.3
20260904164103 72 77 2.0 6.0 0.00 0.00 0.00 59 1023.4
20260904163604 72 77 2.0 6.0 0.00 0.00 0.00 59 1023.4
20260904163104 71 77 2.0 6.0 0.00 0.00 0.00 58 1023.5
20260904162604 71 77 2.0 6.0 0.00 0.00 0.00 61 1023.5
20260904161604 71 77 2.0 6.0 0.00 0.00 0.00 61 1023.5
20260904161104 71 77 2.0 6.0 0.00 0.00 0.00 62 1023.5
20260904160604 71 77 2.0 6.0 0.00 0.00 0.00 62 1023.5
20260904160104 71 77 2.0 6.0 0.00 0.00 0.00 62 1023.5
20260904155604 71 77 2.0 6.0 0.00 0.00 0.00 61 1023.5
20260904155104 70 77 2.0 6.0 0.00 0.00 0.00 63 1023.5
20260904154603 70 77 2.0 6.0 0.00 0.00 0.00 63 1023.5
20260904154104 69 77 2.0 6.0 0.00 0.00 0.00 62 1023.5
20260904153603 69 77 2.0 6.0 0.00 0.00 0.00 62 1023.6
20260904153103 69 77 2.0 6.0 0.00 0.00 0.00 61 1023.6
20260904152603 68 77 2.0 6.0 0.00 0.00 0.00 63 1023.5
20260904152104 68 77 2.0 6.0 0.00 0.00 0.00 63 1023.5
20260904150604 67 77 2.0 6.0 0.00 0.00 0.00 65 1023.5
20260904150104 66 77 2.0 6.0 0.00 0.00 0.00 65 1023.5
20260904145603 66 77 2.0 6.0 0.00 0.00 0.00 66 1023.6
20260904144604 65 77 2.0 6.0 0.00 0.00 0.00 68 1023.5
20260904144104 64 77 2.0 6.0 0.00 0.00 0.00 69 1023.4
20260904143604 64 77 2.0 6.0 0.00 0.00 0.00 69 1023.4
20260904141603 62 77 2.0 6.0 0.00 0.00 0.00 73 1023.4
20260904141104 62 77 2.0 6.0 0.00 0.00 0.00 74 1023.3
20260904140604 61 77 2.0 6.0 0.00 0.00 0.00 74 1023.3
20260904140103 61 77 2.0 6.0 0.00 0.00 0.00 75 1023.3
20260904135603 60 77 2.0 6.0 0.00 0.00 0.00 76 1023.4
20260904135104 60 77 2.0 6.0 0.00 0.00 0.00 76 1023.3
20260904133104 57 77 2.0 6.0 0.00 0.00 0.00 80 1023.3
20260904132104 56 77 2.0 6.0 0.00 0.00 0.00 83 1023.3
20260904131603 56 77 2.0 6.0 0.00 0.00 0.00 85 1023.3
20260904131103 55 77 2.0 6.0 0.00 0.00 0.00 86 1023.4
20260904125603 56 77 2.0 6.0 0.00 0.00 0.00 83 1023.4
20260904125103 56 77 2.0 6.0 0.00 0.00 0.00 82 1023.4
20260904124604 56 77 2.0 6.0 0.00 0.00 0.00 83 1023.3
20260904124104 55 77 2.0 6.0 0.00 0.00 0.00 84 1023.3
20260904123604 55 77 2.0 6.0 0.00 0.00 0.00 86 1023.3
20260904123104 55 77 2.0 6.0 0.00 0.00 0.00 86 1023.3
20260904122603 56 77 2.0 6.0 0.00 0.00 0.00 84 1023.3
20260904122104 56 77 2.0 6.0 0.00 0.00 0.00 83 1023.2
20260904121604 56 77 2.0 6.0 0.00 0.00 0.00 83 1023.1
20260904120104 56 77 2.0 6.0 0.00 0.00 0.00 84 1023.1
20260904115604 56 77 2.0 6.0 0.00 0.00 0.00 84 1023.1
20260904115104 56 77 2.0 6.0 0.00 0.00 0.00 85 1023.0
20260904114603 56 77 2.0 6.0 0.00 0.00 0.00 86 1023.0
20260904114104 56 77 2.0 6.0 0.00 0.00 0.00 85 1022.9
20260904113603 56 77 2.0 6.0 0.00 0.00 0.00 85 1022.9
20260904113103 56 77 2.0 6.0 0.00 0.00 0.00 85 1023.0
20260904112604 56 77 2.0 6.0 0.00 0.00 0.00 85 1023.0
20260904111603 56 77 2.0 6.0 0.00 0.00 0.00 85 1022.9
20260904111104 56 77 2.0 6.0 0.00 0.00 0.00 85 1022.9
20260904110604 57 77 2.0 6.0 0.00 0.00 0.00 84 1022.9
20260904105604 58 77 2.0 6.0 0.00 0.00 0.00 82 1022.9
20260904105104 58 77 2.0 6.0 0.00 0.00 0.00 82 1022.9
20260904104604 58 77 2.0 6.0 0.00 0.00 0.00 82 1022.9
20260904104104 58 77 2.0 6.0 0.00 0.00 0.00 81 1022.9
20260904103604 58 77 2.0 6.0 0.00 0.00 0.00 81 1022.9
20260904103104 58 77 2.0 6.0 0.00 0.00 0.00 81 1022.9
20260904102603 58 77 2.0 6.0 0.00 0.00 0.00 81 1022.9
20260904102103 57 77 2.0 6.0 0.00 0.00 0.00 83 1022.9
20260904101604 57 77 2.0 6.0 0.00 0.00 0.00 83 1022.9
20260904100604 57 77 2.0 6.0 0.00 0.00 0.00 84 1023.0
20260904095604 57 77 2.0 6.0 0.00 0.00 0.00 84 1022.9
20260904095103 57 77 2.0 6.0 0.00 0.00 0.00 85 1022.9
20260904094604 57 77 2.0 6.0 0.00 0.00 0.00 85 1022.9
20260904094103 57 77 2.0 6.0 0.00 0.00 0.00 85 1022.9
20260904093604 58 77 2.0 6.0 0.00 0.00 0.00 85 1022.9
20260904092603 59 77 2.0 6.0 0.00 0.00 0.00 83 1022.9
20260904092103 60 77 2.0 6.0 0.00 0.00 0.00 80 1022.9
20260904091604 60 77 2.0 6.0 0.00 0.00 0.00 79 1022.9
20260904091104 60 77 2.0 6.0 0.00 0.00 0.00 79 1022.8
20260904090604 60 77 2.0 6.0 0.00 0.00 0.00 79 1022.8
20260904085604 59 77 2.0 6.0 0.00 0.00 0.00 80 1022.8
20260904085104 59 77 2.0 6.0 0.00 0.00 0.00 81 1022.8
20260904084604 59 77 2.0 6.0 0.00 0.00 0.00 83 1022.8
20260904084104 59 77 2.0 6.0 0.00 0.00 0.00 83 1022.8
20260904082603 60 77 2.0 6.0 0.00 0.00 0.00 82 1022.9
20260904082104 60 77 2.0 6.0 0.00 0.00 0.00 82 1022.9
20260904081604 60 77 2.0 6.0 0.00 0.00 0.00 82 1022.9
20260904081104 60 77 2.0 6.0 0.00 0.00 0.00 82 1022.9
20260904080604 59 77 2.0 6.0 0.00 0.00 0.00 82 1023.0
20260904074603 60 77 2.0 6.0 0.00 0.00 0.00 81 1022.9
20260904074104 60 77 2.0 6.0 0.00 0.00 0.00 80 1022.8
20260904073604 60 77 2.0 6.0 0.00 0.00 0.00 81 1022.8
20260904072603 60 77 2.0 6.0 0.00 0.00 0.00 81 1022.8
20260904072104 61 77 2.0 6.0 0.00 0.00 0.00 80 1022.8
20260904071103 62 77 2.0 6.0 0.00 0.00 0.00 78 1022.7
20260904070603 62 77 2.0 6.0 0.00 0.00 0.00 77 1022.8
20260904065603 63 77 2.0 6.0 0.00 0.00 0.00 75 1022.8
20260904064604 63 77 2.0 6.0 0.00 0.00 0.00 74 1022.8
20260904064105 63 77 2.0 6.0 0.00 0.00 0.00 74 1022.9
20260904063604 63 77 2.0 6.0 0.00 0.00 0.00 74 1022.9
20260904063104 64 77 2.0 6.0 0.00 0.00 0.00 73 1023.0
20260904062604 64 77 2.0 6.0 0.00 0.00 0.00 73 1023.0
20260904062103 64 77 2.0 6.0 0.00 0.00 0.00 73 1022.9
20260904061604 64 77 2.0 6.0 0.00 0.00 0.00 73 1022.8
20260904061104 64 77 2.0 6.0 0.00 0.00 0.00 74 1022.9
20260904060604 64 77 2.0 6.0 0.00 0.00 0.00 74 1022.8
20260904060104 64 77 2.0 6.0 0.00 0.00 0.00 75 1022.8
20260904055604 64 77 2.0 6.0 0.00 0.00 0.00 75 1022.8
20260904055104 64 77 2.0 6.0 0.00 0.00 0.00 73 1022.8
20260904054604 64 77 2.0 6.0 0.00 0.00 0.00 73 1022.8
20260904053604 64 77 2.0 6.0 0.00 0.00 0.00 73 1022.8
20260904053103 64 77 2.0 6.0 0.00 0.00 0.00 74 1022.9
20260904052603 64 77 2.0 6.0 0.00 0.00 0.00 74 1022.9
20260904052103 64 77 2.0 6.0 0.00 0.00 0.00 74 1023.0
20260904051603 64 77 2.0 6.0 0.00 0.00 0.00 74 1023.0
20260904051104 65 77 2.0 6.0 0.00 0.00 0.00 74 1023.0
20260904050604 65 77 2.0 6.0 0.00 0.00 0.00 74 1023.0
20260904050104 65 77 2.0 6.0 0.00 0.00 0.00 74 1023.1
20260904045104 65 77 2.0 6.0 0.00 0.00 0.00 73 1023.3
20260904044105 65 77 2.0 6.0 0.00 0.00 0.00 74 1023.4
20260904043604 65 77 2.0 6.0 0.00 0.00 0.00 74 1023.4
20260904043104 65 77 2.0 6.0 0.00 0.00 0.00 74 1023.5
20260904042604 65 77 2.0 6.0 0.00 0.00 0.00 75 1023.5
20260904042104 65 77 2.0 6.0 0.00 0.00 0.00 76 1023.6
20260904041603 65 77 2.0 6.0 0.00 0.00 0.00 77 1023.7
20260904041104 65 77 2.0 6.0 0.00 0.00 0.00 77 1023.7
20260904040604 65 77 2.0 6.0 0.00 0.00 0.00 78 1023.8
20260904040103 64 77 2.0 6.0 0.00 0.00 0.00 77 1023.9
20260904035604 64 77 2.0 6.0 0.00 0.00 0.00 78 1023.9
20260904035104 64 77 2.0 6.0 0.00 0.00 0.00 78 1024.0
20260904034604 64 77 2.0 6.0 0.00 0.00 0.00 78 1024.0
20260904034104 65 77 2.0 6.0 0.00 0.00 0.00 78 1024.0
20260904033104 64 77 2.0 6.0 0.00 0.00 0.00 77 1023.9
20260904032604 64 77 2.0 6.0 0.00 0.00 0.00 77 1024.0
20260904032103 64 77 2.0 6.0 0.00 0.00 0.00 77 1023.9
20260904031603 65 77 2.0 6.0 0.00 0.00 0.00 76 1023.9
20260904031104 65 77 2.0 6.0 0.00 0.00 0.00 76 1023.8
20260904030604 64 77 2.0 6.0 0.00 0.00 0.00 76 1023.8
20260904030104 64 77 2.0 6.0 0.00 0.00 0.00 77 1023.7
20260904025604 65 77 2.0 6.0 0.00 0.00 0.00 76 1023.5
20260904025104 65 77 2.0 6.0 0.00 0.00 0.00 75 1023.4
20260904024604 65 77 2.0 6.0 0.00 0.00 0.00 74 1023.4
20260904023604 65 77 2.0 6.0 0.00 0.00 0.00 73 1023.4
20260904023104 65 77 2.0 6.0 0.00 0.00 0.00 73 1023.3
20260904022604 65 77 2.0 6.0 0.00 0.00 0.00 73 1023.3
20260904022104 65 77 2.0 6.0 0.00 0.00 0.00 72 1023.2
20260904021604 65 77 2.0 6.0 0.00 0.00 0.00 73 1023.2
20260904021104 65 77 2.0 6.0 0.00 0.00 0.00 74 1023.1
20260904020105 66 77 2.0 6.0 0.00 0.00 0.00 75 1022.9
20260904015604 66 77 2.0 6.0 0.00 0.00 0.00 74 1022.9
20260904015103 67 77 2.0 6.0 0.00 0.00 0.00 71 1022.9
20260904014603 67 77 2.0 6.0 0.00 0.00 0.00 70 1022.8
20260904014104 67 77 2.0 6.0 0.00 0.00 0.00 70 1022.8
20260904013604 67 77 2.0 6.0 0.00 0.00 0.00 71 1022.8
20260904012104 67 77 2.0 6.0 0.00 0.00 0.00 71 1022.8
20260904011604 68 77 2.0 6.0 0.00 0.00 0.00 69 1022.8
20260904011104 68 77 2.0 6.0 0.00 0.00 0.00 67 1022.8
20260904010604 68 77 2.0 6.0 0.00 0.00 0.00 67 1022.8
20260904010104 68 77 2.0 6.0 0.00 0.00 0.00 66 1022.8
20260904005603 68 77 2.0 6.0 0.00 0.00 0.00 69 1022.7
20260904005104 68 77 2.0 6.0 0.00 0.00 0.00 70 1022.6